[[{"header":{"parameterUnit":"m.s-1","parameterCategory":2,"la1":30.2991,"la2":30.254,"lo1":-89.0895,"lo2":-89.0444,"dy":0.0017,"dx":0.0017,"nx":28,"ny":28,"refTime":"2023-09-25T09:00:00:Z","depth":"0","parameterNumber":2,"parameterNumberName":"U-component_of_CURRENTS"},"data":[0,0,0,0,0,0,0,0,0,0,0,0,0,0,0,0,0,0,0,0,0,0,0,0,0,0,0,0,0,0,0,0,0,0,0,0,0,0,0,0,0,0,0,0,0,0,0,0,0,0,0,0,0,0,0,0,0,0,0.3899,0.39,0,0.3956,0.3957,0.3957,0.388,0.3877,0.3875,0.3873,0.3903,0.3905,0.3908,0,0,0,0,0,0,0,0,0,0,0,0,0,0.3747,0.3749,0.3899,0.39,0.3902,0.3956,0.3957,0.3957,0.388,0.3877,0.3875,0.3872,0.3902,0.3905,0.3908,0,0,0,0,0,0,0,0,0,0,0,0,0,0.3803,0.375,0.3899,0.3875,0.3874,0.3956,0.3957,0.3957,0.388,0.3877,0.3874,0.3871,0.3901,0.3905,0.3909,0.4,0,0,0.3922,0.3924,0,0,0,0,0,0,0,0,0.38,0.3808,0.3877,0.3877,0.3876,0.3913,0.3914,0.3972,0.3881,0.3871,0.3873,0.3869,0.391,0.3914,0.3923,0.4001,0.4003,0.3922,0.3925,0.3926,0.3928,0,0,0,0,0,0,0,0.3796,0.3805,0.3915,0.3879,0.3878,0.387,0.3873,0.3924,0.3903,0.3872,0.3868,0.3886,0.3908,0.3919,0.3923,0.4003,0.3922,0.3926,0.3928,0.393,0.4101,0.4103,0,0,0,0,0,0,0.3806,0.3802,0.3913,0.3917,0.3836,0.3876,0.3879,0.3899,0.3903,0.3902,0.3889,0.3882,0.3913,0.3918,0.3924,0.397,0.3926,0.393,0.3933,0.4099,0.4102,0.4104,0,0,0,0,0,0,0.3802,0.3815,0.3911,0.3865,0.3878,0.3882,0.3905,0.3902,0.3913,0.3917,0.3913,0.3902,0.3911,0.3918,0.3979,0.3973,0.3932,0.3936,0.4097,0.41,0.4103,0.4103,0,0,0,0,0,0,0.3797,0.3813,0.3832,0.3867,0.3881,0.396,0.3909,0.3906,0.3932,0.3924,0.3929,0.3927,0.3909,0.3973,0.3983,0.3978,0.3939,0.4095,0.4098,0.4102,0.4101,0.4106,0.411,0,0,0,0,0,0.3792,0.3823,0.3832,0.3846,0.3906,0.3963,0.3969,0.3956,0.3936,0.3951,0.396,0.3927,0.4002,0.398,0.3991,0.3986,0.4093,0.4097,0.4102,0.4098,0.4105,0.411,0,0,0,0,0,0,0.3764,0.382,0.383,0.3877,0.3922,0.3952,0.3973,0.3976,0.3998,0.399,0.3978,0.3981,0.4025,0.4031,0.4006,0.405,0.4034,0.4041,0.4027,0.4034,0.4038,0.405,0.3943,0,0,0,0,0,0.3775,0.381,0.3866,0.3906,0.3934,0.3963,0.3986,0.3986,0.4014,0.4018,0.4028,0.404,0.4059,0.4066,0.4093,0.4141,0.4187,0.4141,0.4146,0.415,0.4171,0.4234,0.4246,0.4119,0.4119,0.4119,0,0,0.3779,0.3815,0.3836,0.3904,0.3936,0.3984,0.3966,0.4013,0.4035,0.4026,0.4062,0.4074,0.4083,0.4113,0.4131,0.4112,0.422,0.4156,0.4158,0.4177,0.424,0.4252,0.4263,0.4122,0.4122,0.4121,0,0,0.38,0.384,0.3874,0.392,0.3983,0.4008,0.4029,0.4078,0.4076,0.4135,0.4117,0.4141,0.4182,0.4172,0.4173,0.424,0.4254,0.4235,0.4254,0.4315,0.4325,0.4335,0.4442,0.4461,0.4222,0.4222,0.4222,0,0.3798,0.3855,0.3895,0.3943,0.3984,0.4023,0.4071,0.4093,0.4149,0.4159,0.4145,0.4203,0.4205,0.4228,0.4233,0.4246,0.4305,0.4219,0.4319,0.4329,0.4339,0.4446,0.4467,0.4223,0.4222,0.4222,0.4222,0,0.3839,0.3896,0.3927,0.3997,0.4044,0.4099,0.4145,0.4181,0.4193,0.4206,0.4246,0.4261,0.4285,0.4277,0.4273,0.4329,0.436,0.4325,0.4296,0.4352,0.4462,0.4483,0.4223,0.4223,0.4223,0.4223,0,0,0.3809,0.3928,0.3939,0.3991,0.4078,0.4125,0.4173,0.4227,0.4257,0.4283,0.4317,0.4332,0.4335,0.4342,0.4333,0.4374,0.4493,0.4379,0.4381,0.4473,0.4676,0.4629,0.4648,0.4469,0.4472,0.4474,0.4736,0,0.3829,0.3925,0.3972,0.407,0.4138,0.4187,0.423,0.4278,0.4309,0.4355,0.4351,0.4394,0.4356,0.4376,0.4407,0.4479,0.4547,0.4429,0.4621,0.4629,0.4566,0.4669,0.4386,0.4588,0.4758,0.4761,0.4764,0,0.3855,0.3922,0.4016,0.413,0.4158,0.4209,0.4294,0.4337,0.4393,0.4412,0.4438,0.4458,0.4522,0.4482,0.4631,0.456,0.4633,0.4682,0.4692,0.4661,0.4619,0.4556,0.4621,0.4477,0.4798,0.4795,0.4793,0,0.3844,0.3955,0.4031,0.4074,0.4197,0.4232,0.4283,0.4351,0.4399,0.4464,0.4519,0.4565,0.4636,0.4702,0.4803,0.4734,0.4993,0.4901,0.4938,0.4938,0.4743,0.4719,0.4674,0.5032,0.5032,0.5031,0.503,0,0.3875,0.3949,0.4032,0.4091,0.4173,0.4239,0.4322,0.4371,0.4447,0.4517,0.4552,0.4635,0.4699,0.4835,0.4879,0.5006,0.5063,0.499,0.5004,0.474,0.4714,0.4615,0.4549,0.5041,0.5039,0.5037,0.5035,0,0.3919,0.3963,0.4069,0.4165,0.4191,0.4258,0.4364,0.4414,0.4489,0.4592,0.4627,0.4751,0.4914,0.5006,0.5168,0.5134,0.5082,0.527,0.4985,0.4958,0.4766,0.471,0.4607,0.4488,0.5323,0.5323,0.5323,0,0.3965,0.4017,0.4121,0.416,0.4217,0.4302,0.4351,0.4429,0.4478,0.466,0.4704,0.4909,0.5003,0.5236,0.5231,0.533,0.5154,0.5122,0.4904,0.4758,0.4708,0.4533,0.4427,0.4677,0.4672,0.4668,0.4665,0,0.4051,0.4076,0.4157,0.4219,0.4273,0.4336,0.4402,0.4444,0.4535,0.4616,0.4746,0.4849,0.5062,0.5002,0.5136,0.5143,0.4813,0.5041,0.4934,0.4253,0.4013,0.3902,0.4558,0.4628,0.4632,0.4635,0.4637,0.4638,0.4102,0.4153,0.4204,0.4261,0.4307,0.4314,0.4311,0.437,0.4419,0.4472,0.4671,0.4729,0.4755,0.4866,0.4857,0.4613,0.4645,0.4388,0.4366,0.4231,0.3981,0.4597,0.4638,0.4642,0.4645,0.4648,0.465,0,0.4122,0.4151,0.4219,0.4236,0.4232,0.4269,0.4286,0.4229,0.4205,0.4336,0.4404,0.438,0.4312,0.4306,0.4114,0.3927,0.3742,0.3807,0.345,0.3406,0.3988,0.3819,0.3625,0.3625,0.3625,0.3625,0.3625,0.3625,0.4122,0.4159,0.4167,0.4119,0.4116,0.4022,0.3989,0.3931,0.3957,0.3866,0.3817,0.3876,0.3869,0.3741,0.3485,0.3399,0.3129,0.2957,0.3058,0.3405,0.3455,0.3502,0.3325,0.3031,0.303,0.2259,0.2253,0.2248]},{"header":{"parameterUnit":"m.s-1","parameterCategory":2,"la1":30.2991,"la2":30.254,"lo1":-89.0895,"lo2":-89.0444,"dy":0.0017,"dx":0.0017,"nx":28,"ny":28,"refTime":"2023-09-25T09:00:00:Z","depth":"0","parameterNumber":3,"parameterNumberName":"V-component_of_CURRENTS"},"data":[0,0,0,0,0,0,0,0,0,0,0,0,0,0,0,0,0,0,0,0,0,0,0,0,0,0,0,0,0,0,0,0,0,0,0,0,0,0,0,0,0,0,0,0,0,0,0,0,0,0,0,0,0,0,0,0,0,0,-0.0369,-0.037,0,-0.0459,-0.046,-0.0462,-0.0454,-0.0452,-0.0451,-0.0449,-0.0571,-0.0575,-0.058,0,0,0,0,0,0,0,0,0,0,0,0,0,-0.0234,-0.0236,-0.0369,-0.037,-0.0371,-0.0459,-0.0461,-0.0462,-0.0454,-0.0452,-0.045,-0.0448,-0.0569,-0.0575,-0.058,0,0,0,0,0,0,0,0,0,0,0,0,0,-0.0307,-0.0237,-0.0369,-0.0376,-0.0378,-0.0459,-0.0461,-0.0462,-0.0454,-0.0452,-0.045,-0.0448,-0.0567,-0.0574,-0.0581,-0.0671,0,0,-0.0602,-0.0605,0,0,0,0,0,0,0,0,-0.0303,-0.0312,-0.0374,-0.0376,-0.0378,-0.0441,-0.0457,-0.0533,-0.0455,-0.0427,-0.0449,-0.0446,-0.0531,-0.0541,-0.0565,-0.0676,-0.0681,-0.0603,-0.0607,-0.061,-0.0612,0,0,0,0,0,0,0,-0.0298,-0.0308,-0.0406,-0.0375,-0.0377,-0.039,-0.0398,-0.0472,-0.0493,-0.0429,-0.0428,-0.0437,-0.0532,-0.0558,-0.0568,-0.0683,-0.0603,-0.0609,-0.0613,-0.0616,-0.0815,-0.0816,0,0,0,0,0,0,-0.0284,-0.0304,-0.0403,-0.0409,-0.0332,-0.0394,-0.0403,-0.0425,-0.0491,-0.0498,-0.0438,-0.0436,-0.0547,-0.056,-0.0572,-0.0606,-0.061,-0.0617,-0.0621,-0.0814,-0.0815,-0.0816,0,0,0,0,0,0,-0.0281,-0.0293,-0.04,-0.0356,-0.037,-0.0398,-0.0423,-0.0428,-0.0452,-0.0498,-0.0505,-0.0457,-0.0546,-0.0562,-0.0633,-0.0613,-0.062,-0.0626,-0.0813,-0.0814,-0.0816,-0.0723,0,0,0,0,0,0,-0.0277,-0.0291,-0.0309,-0.0356,-0.0372,-0.0443,-0.0426,-0.0431,-0.0459,-0.0457,-0.0517,-0.0525,-0.0545,-0.0622,-0.064,-0.0623,-0.0632,-0.0811,-0.0813,-0.0815,-0.0725,-0.0721,-0.0718,0,0,0,0,0,-0.0272,-0.0287,-0.031,-0.0322,-0.0394,-0.0444,-0.0455,-0.0467,-0.0462,-0.048,-0.0516,-0.0523,-0.0646,-0.063,-0.065,-0.0634,-0.081,-0.0813,-0.0815,-0.0726,-0.0722,-0.0718,0,0,0,0,0,0,-0.0236,-0.0289,-0.0315,-0.0347,-0.0396,-0.0441,-0.0453,-0.0478,-0.0524,-0.0517,-0.0557,-0.0571,-0.0621,-0.0662,-0.0642,-0.0701,-0.0723,-0.073,-0.0649,-0.0645,-0.0642,-0.0571,-0.0638,0,0,0,0,0,-0.0242,-0.0264,-0.0327,-0.0354,-0.0375,-0.0424,-0.0448,-0.0466,-0.0508,-0.0525,-0.0567,-0.0611,-0.0653,-0.0673,-0.0729,-0.0779,-0.0747,-0.078,-0.0776,-0.0773,-0.0732,-0.0687,-0.0674,-0.0824,-0.0824,-0.0824,0,0,-0.0233,-0.0266,-0.0279,-0.0348,-0.0381,-0.0405,-0.0432,-0.0466,-0.0478,-0.0536,-0.0566,-0.0617,-0.0671,-0.0706,-0.0731,-0.0731,-0.0714,-0.0776,-0.0772,-0.0732,-0.0688,-0.0672,-0.0658,-0.0826,-0.0826,-0.0826,0,0,-0.0202,-0.0261,-0.026,-0.0304,-0.0359,-0.0395,-0.0407,-0.0467,-0.0483,-0.0543,-0.0566,-0.0595,-0.0693,-0.0689,-0.0708,-0.0732,-0.0709,-0.0767,-0.0677,-0.0635,-0.062,-0.0606,-0.0528,-0.0508,-0.075,-0.075,-0.075,0,-0.0184,-0.0202,-0.0269,-0.0283,-0.0302,-0.0385,-0.0386,-0.0431,-0.0505,-0.0494,-0.0539,-0.0602,-0.0665,-0.0644,-0.0652,-0.0714,-0.0679,-0.0679,-0.0622,-0.0608,-0.0596,-0.0519,-0.0499,-0.0746,-0.0746,-0.0747,-0.0747,0,-0.0146,-0.0174,-0.0177,-0.0218,-0.0258,-0.0278,-0.0346,-0.0374,-0.0414,-0.0435,-0.0447,-0.0526,-0.053,-0.0577,-0.0628,-0.0571,-0.057,-0.0627,-0.0611,-0.0573,-0.0498,-0.0477,-0.074,-0.0741,-0.0743,-0.0744,0,0,-0.0062,-0.013,-0.0129,-0.0133,-0.0222,-0.0237,-0.0264,-0.028,-0.0234,-0.0327,-0.0255,-0.0358,-0.0367,-0.0389,-0.0447,-0.0431,-0.0337,-0.0487,-0.0487,-0.037,-0.0203,-0.0207,-0.0185,-0.0381,-0.0378,-0.0375,-0.0176,0,-0.0003,0.0009,-0.005,-0.0045,-0.0051,-0.0128,-0.0125,-0.0153,-0.0179,-0.0141,-0.0196,-0.0175,-0.0306,-0.0284,-0.0292,-0.0321,-0.0283,-0.0382,-0.029,-0.0286,-0.0262,-0.0162,-0.0173,0.0002,-0.0157,-0.0153,-0.0151,0,0.0058,0.0058,0.0085,0.0067,0.0066,0.0065,0.0094,0.0083,0.0098,0.0093,0.0104,0.006,0.0082,-0.0049,-0.0027,-0.0082,-0.0124,-0.0162,-0.0156,-0.0168,-0.0252,-0.0071,0.0044,-0.0158,-0.012,-0.0122,-0.0124,0,0.0166,0.0152,0.019,0.0174,0.0143,0.0175,0.0176,0.0182,0.0227,0.0272,0.0337,0.032,0.0362,0.0293,0.0192,0.0103,0.0229,0.0099,0.007,0.0071,0.0079,0.0074,0.0047,0.0137,0.0137,0.0136,0.0136,0,0.0238,0.0261,0.0258,0.0274,0.0362,0.0299,0.0411,0.0409,0.0469,0.058,0.0491,0.0595,0.0446,0.0469,0.0331,0.0306,0.0354,0.0145,0.0136,0.0106,0.0102,-0.0065,-0.0187,0.0144,0.0142,0.0141,0.014,0,0.0307,0.0304,0.0354,0.038,0.0405,0.047,0.0546,0.0639,0.0671,0.0822,0.0855,0.0864,0.0906,0.0772,0.0713,0.0533,0.0384,0.044,0.0435,0.0419,0.0141,0.0025,0.0071,-0.0004,0.0452,0.0453,0.0454,0,0.0334,0.037,0.045,0.0518,0.0534,0.0626,0.071,0.0744,0.0843,0.0998,0.1099,0.1183,0.1273,0.1202,0.0933,0.0779,0.0529,0.0598,0.0391,0.0185,0.0049,-0.0036,-0.0112,0.0453,0.0454,0.0455,0.0455,0,0.0392,0.0434,0.049,0.0633,0.0739,0.0846,0.0963,0.107,0.1151,0.1303,0.1507,0.1607,0.1543,0.1406,0.1151,0.096,0.0454,0.0607,0.0399,0.0077,-0.0014,-0.0112,0.0277,0.0462,0.0462,0.0461,0.0461,0.046,0.0457,0.052,0.0625,0.0755,0.0882,0.1039,0.1155,0.1306,0.1504,0.1747,0.1817,0.2039,0.1745,0.1414,0.1146,0.0567,0.0554,0.032,0.0217,0.0167,0.0024,0.0448,0.0593,0.0593,0.0593,0.0593,0.0593,0,0.0536,0.0612,0.074,0.0903,0.1048,0.1094,0.1306,0.1444,0.1701,0.1996,0.2205,0.2231,0.1852,0.139,0.064,0.0233,0.0048,-0.0013,-0.017,-0.0217,0.0178,0.0097,0.0135,0.0135,0.0135,0.0135,0.0136,0.0136,0.0594,0.0717,0.0776,0.101,0.1127,0.1329,0.1455,0.1685,0.1924,0.2293,0.2502,0.2628,0.2232,0.092,0.0009,-0.021,-0.0501,-0.0528,-0.0661,-0.0472,-0.0452,-0.0433,-0.0539,-0.0635,-0.0636,-0.1033,-0.1037,-0.1041]}],[{"header":{"parameterUnit":"m.s-1","parameterCategory":2,"la1":30.2991,"la2":30.254,"lo1":-89.0895,"lo2":-89.0444,"dy":0.0017,"dx":0.0017,"nx":28,"ny":28,"refTime":"2023-09-25T09:00:00:Z","depth":"2","parameterNumber":2,"parameterNumberName":"U-component_of_CURRENTS"},"data":[0,0,0,0,0,0,0,0,0,0,0,0,0,0,0,0,0,0,0,0,0,0,0,0,0,0,0,0,0,0,0,0,0,0,0,0,0,0,0,0,0,0,0,0,0,0,0,0,0,0,0,0,0,0,0,0,0,0,0.2427,0.2427,0,0.2474,0.2475,0.2476,0.2499,0.2498,0.2497,0.2497,0.2525,0.2526,0.2528,0,0,0,0,0,0,0,0,0,0,0,0,0,0.2428,0.2428,0.2427,0.2427,0.2427,0.2474,0.2475,0.2476,0.2499,0.2498,0.2497,0.2497,0.2525,0.2526,0.2528,0,0,0,0,0,0,0,0,0,0,0,0,0,0.2452,0.2428,0.2427,0.2439,0.244,0.2474,0.2475,0.2477,0.2499,0.2498,0.2497,0.2496,0.2524,0.2526,0.2528,0.2559,0,0,0.2534,0.2535,0,0,0,0,0,0,0,0,0.2451,0.2453,0.2437,0.2438,0.244,0.2474,0.2485,0.2501,0.2499,0.2484,0.2497,0.2496,0.2503,0.2506,0.2527,0.256,0.2561,0.2534,0.2535,0.2536,0.2537,0,0,0,0,0,0,0,0.2449,0.2452,0.2452,0.2437,0.2439,0.2466,0.2469,0.2489,0.2502,0.2485,0.2485,0.248,0.2504,0.2525,0.2527,0.2562,0.2534,0.2536,0.2537,0.2538,0.2659,0.2661,0,0,0,0,0,0,0.2428,0.245,0.2451,0.2453,0.2436,0.2466,0.2469,0.2469,0.2503,0.2505,0.2481,0.2481,0.2522,0.2525,0.2528,0.2655,0.2536,0.2538,0.2539,0.2657,0.266,0.2662,0,0,0,0,0,0,0.2428,0.2428,0.2449,0.2447,0.2451,0.2466,0.2466,0.247,0.2519,0.2498,0.2502,0.2527,0.2521,0.2525,0.2547,0.2652,0.2539,0.2541,0.2655,0.2658,0.2661,0.285,0,0,0,0,0,0,0.2428,0.2428,0.2437,0.2446,0.245,0.2489,0.2467,0.2472,0.2512,0.2514,0.2539,0.2539,0.2521,0.2544,0.2549,0.2653,0.2542,0.2652,0.2656,0.266,0.2842,0.286,0.2875,0,0,0,0,0,0.2428,0.2427,0.2438,0.2438,0.2457,0.249,0.2498,0.2508,0.2516,0.2549,0.2543,0.2539,0.2573,0.2546,0.2552,0.2659,0.2651,0.2655,0.266,0.2834,0.2856,0.2874,0,0,0,0,0,0,0.2423,0.243,0.2441,0.2441,0.2477,0.2492,0.2506,0.2535,0.2564,0.2558,0.2554,0.2554,0.263,0.2595,0.2566,0.2699,0.2618,0.2623,0.2748,0.2769,0.2785,0.2829,0.2544,0,0,0,0,0,0.2428,0.2461,0.2457,0.2485,0.2476,0.2508,0.2528,0.2545,0.2559,0.2575,0.2592,0.2604,0.2652,0.2665,0.2686,0.2743,0.2738,0.2815,0.2832,0.2846,0.2882,0.2959,0.2988,0.2677,0.2677,0.2677,0,0,0.243,0.2454,0.2464,0.2493,0.2506,0.2535,0.252,0.2553,0.2626,0.2571,0.266,0.2672,0.2679,0.2756,0.2787,0.2739,0.2924,0.2852,0.2865,0.2894,0.2967,0.2998,0.3025,0.268,0.268,0.2679,0,0,0.2477,0.2468,0.2506,0.2535,0.2568,0.2576,0.2595,0.2623,0.2672,0.2742,0.2744,0.2808,0.2846,0.2895,0.2921,0.3037,0.302,0.3045,0.3166,0.3241,0.3268,0.3293,0.33,0.3324,0.3043,0.3043,0.3044,0,0.2509,0.2521,0.2527,0.2577,0.259,0.2601,0.2632,0.27,0.2757,0.2797,0.2783,0.2915,0.293,0.3065,0.3117,0.309,0.3093,0.3097,0.3269,0.3292,0.3314,0.3316,0.334,0.3053,0.3052,0.3051,0.305,0,0.2553,0.2586,0.2601,0.2667,0.2699,0.272,0.2772,0.2828,0.287,0.2936,0.3074,0.3114,0.3186,0.3227,0.3219,0.3398,0.3337,0.3295,0.323,0.3358,0.335,0.3371,0.3067,0.3063,0.306,0.3058,0,0,0.2575,0.2623,0.2636,0.2664,0.2728,0.2751,0.2858,0.2933,0.3027,0.3118,0.3252,0.3384,0.3416,0.3449,0.3476,0.3564,0.3728,0.3511,0.351,0.354,0.3857,0.3694,0.37,0.3722,0.3727,0.3731,0.3781,0,0.2612,0.2696,0.2707,0.2783,0.28,0.2831,0.2945,0.3043,0.3132,0.3268,0.3371,0.3507,0.3504,0.3568,0.3668,0.3723,0.3797,0.3715,0.371,0.3709,0.3569,0.3725,0.3426,0.3436,0.3801,0.3805,0.3807,0,0.2625,0.2688,0.2745,0.2828,0.2832,0.2901,0.3017,0.3124,0.3314,0.3408,0.3556,0.3623,0.3807,0.3774,0.395,0.3897,0.3908,0.3931,0.3932,0.3738,0.3589,0.337,0.346,0.3842,0.3839,0.3837,0.3834,0,0.2604,0.2695,0.2731,0.2758,0.2867,0.2916,0.299,0.3168,0.3271,0.3513,0.3608,0.3804,0.3917,0.4,0.4042,0.4015,0.4192,0.4132,0.3987,0.3971,0.3695,0.3647,0.4257,0.4257,0.4257,0.4257,0.4256,0,0.2595,0.2637,0.2731,0.2753,0.2832,0.2931,0.305,0.3175,0.3383,0.3511,0.369,0.3825,0.399,0.4076,0.4099,0.4108,0.4224,0.4056,0.4007,0.3743,0.3701,0.4028,0.4001,0.4258,0.4258,0.4258,0.4257,0,0.2554,0.2607,0.2663,0.2779,0.2814,0.2887,0.3043,0.315,0.3369,0.3544,0.3621,0.3872,0.4005,0.4088,0.4221,0.4156,0.4184,0.4139,0.3789,0.3699,0.3894,0.3876,0.4011,0.4006,0.4002,0.3999,0.3996,0,0.2558,0.2568,0.2655,0.2701,0.2749,0.2861,0.2942,0.3136,0.325,0.354,0.3617,0.3819,0.39,0.4026,0.4005,0.3994,0.4106,0.3677,0.3589,0.3948,0.3886,0.3874,0.3861,0.3281,0.3273,0.3266,0.3261,0,0.2544,0.2548,0.2566,0.2677,0.2747,0.2794,0.2929,0.2977,0.3197,0.3325,0.3478,0.3554,0.3719,0.3605,0.3625,0.358,0.3661,0.3534,0.4049,0.338,0.3262,0.32,0.3212,0.32,0.3206,0.321,0.3214,0.3216,0.253,0.2512,0.2544,0.2635,0.2707,0.2725,0.2711,0.2821,0.2889,0.2997,0.3171,0.3202,0.3285,0.3174,0.3087,0.3061,0.3305,0.3154,0.3176,0.3204,0.3101,0.2983,0.2845,0.2849,0.2853,0.2856,0.2858,0,0.2503,0.2486,0.2533,0.2592,0.2613,0.2693,0.2696,0.2632,0.2604,0.2696,0.274,0.2532,0.2484,0.262,0.2475,0.2451,0.2439,0.2364,0.2333,0.2396,0.2451,0.2309,0.1844,0.184,0.1837,0.1834,0,0,0.2459,0.2454,0.2441,0.2477,0.2528,0.2424,0.2358,0.2291,0.2283,0.2162,0.2148,0.2303,0.2484,0.2099,0.2063,0.1935,0.2143,0.1859,0.2675,0.2699,0.2749,0.2913,0.2766,0,0,0,0,0]},{"header":{"parameterUnit":"m.s-1","parameterCategory":2,"la1":30.2991,"la2":30.254,"lo1":-89.0895,"lo2":-89.0444,"dy":0.0017,"dx":0.0017,"nx":28,"ny":28,"refTime":"2023-09-25T09:00:00:Z","depth":"2","parameterNumber":3,"parameterNumberName":"V-component_of_CURRENTS"},"data":[0,0,0,0,0,0,0,0,0,0,0,0,0,0,0,0,0,0,0,0,0,0,0,0,0,0,0,0,0,0,0,0,0,0,0,0,0,0,0,0,0,0,0,0,0,0,0,0,0,0,0,0,0,0,0,0,0,0,0.0198,0.0198,0,0.0156,0.0155,0.0155,0.0091,0.0091,0.009,0.0089,0.0046,0.0046,0.0045,0,0,0,0,0,0,0,0,0,0,0,0,0,0.0178,0.0179,0.0198,0.0198,0.0198,0.0156,0.0155,0.0154,0.0092,0.0091,0.009,0.0089,0.0046,0.0046,0.0045,0,0,0,0,0,0,0,0,0,0,0,0,0,0.0163,0.0179,0.0198,0.0164,0.0161,0.0156,0.0155,0.0154,0.0092,0.0091,0.0089,0.0088,0.0046,0.0046,0.0045,0.0065,0,0,0.0043,0.0043,0,0,0,0,0,0,0,0,0.0164,0.0164,0.0169,0.0166,0.0163,0.0131,0.0132,0.0125,0.0092,0.0114,0.0089,0.0088,0.0078,0.0074,0.0064,0.0063,0.0061,0.0043,0.0043,0.0043,0.0042,0,0,0,0,0,0,0,0.0165,0.0165,0.0178,0.0169,0.0165,0.0135,0.0132,0.013,0.01,0.0112,0.0108,0.011,0.0075,0.0065,0.0063,0.006,0.0043,0.0043,0.0042,0.0042,0.0087,0.0088,0,0,0,0,0,0,0.0182,0.0166,0.0179,0.0177,0.0165,0.0137,0.0133,0.0139,0.01,0.0094,0.0111,0.0107,0.0066,0.0063,0.0061,0.0079,0.0043,0.0042,0.0042,0.0085,0.0087,0.0089,0,0,0,0,0,0,0.0182,0.0184,0.0181,0.0173,0.0171,0.0139,0.0147,0.0139,0.0115,0.01,0.0093,0.0093,0.0065,0.0062,0.0072,0.0077,0.0042,0.0041,0.0083,0.0086,0.0088,0.0119,0,0,0,0,0,0,0.0181,0.0184,0.0184,0.0174,0.0172,0.0193,0.0148,0.0139,0.012,0.0114,0.0083,0.0078,0.0064,0.0074,0.0072,0.0076,0.0041,0.0081,0.0084,0.0087,0.0116,0.0122,0.0127,0,0,0,0,0,0.0181,0.0206,0.0184,0.0185,0.0177,0.0195,0.0191,0.0161,0.0121,0.0129,0.0108,0.0078,0.009,0.0075,0.0072,0.0076,0.008,0.0083,0.0087,0.0113,0.0121,0.0127,0,0,0,0,0,0,0.0203,0.0202,0.0178,0.0201,0.0199,0.0185,0.0195,0.0158,0.0144,0.0136,0.01,0.0096,0.0104,0.0097,0.008,0.0102,0.008,0.0083,0.0101,0.0107,0.0113,0.0086,0.004,0,0,0,0,0,0.0207,0.021,0.0214,0.0222,0.0237,0.0207,0.0203,0.0183,0.0174,0.0163,0.014,0.0125,0.012,0.0118,0.0118,0.0133,0.0106,0.0136,0.0142,0.0146,0.0126,0.0092,0.0092,0.01,0.01,0.01,0,0,0.0216,0.0211,0.0214,0.0224,0.0222,0.0253,0.0202,0.0213,0.0212,0.0165,0.0163,0.0143,0.0129,0.0145,0.0147,0.0136,0.014,0.0151,0.0154,0.0131,0.0096,0.0094,0.0093,0.0103,0.0102,0.0102,0,0,0.0244,0.0242,0.0261,0.0275,0.0281,0.0277,0.028,0.0273,0.0251,0.0251,0.0215,0.0197,0.0196,0.018,0.0172,0.0211,0.0169,0.0218,0.0222,0.019,0.0188,0.0186,0.0183,0.018,0.0222,0.0222,0.0222,0,0.0242,0.028,0.027,0.0303,0.0329,0.0293,0.0341,0.0318,0.03,0.0293,0.0262,0.0228,0.0208,0.0206,0.0208,0.0218,0.0202,0.0193,0.0194,0.019,0.0187,0.0185,0.0181,0.0224,0.0224,0.0224,0.0223,0,0.0303,0.0328,0.0355,0.038,0.0406,0.0446,0.0441,0.0443,0.0405,0.0367,0.0344,0.03,0.0277,0.0268,0.0239,0.0216,0.0214,0.02,0.0167,0.0187,0.0185,0.0181,0.0227,0.0226,0.0225,0.0225,0,0,0.0307,0.038,0.0387,0.0421,0.046,0.049,0.0517,0.0532,0.0519,0.0471,0.0455,0.0401,0.034,0.0325,0.0283,0.0233,0.0197,0.0198,0.0196,0.018,0.0143,0.0118,0.011,0.0175,0.0174,0.0173,0.0161,0,0.0353,0.0435,0.0464,0.0545,0.0603,0.0614,0.0624,0.0619,0.0592,0.0566,0.0488,0.0455,0.0374,0.0353,0.0286,0.0225,0.018,0.0202,0.0138,0.0137,0.0096,0.0101,0.012,0.0107,0.0156,0.0155,0.0155,0,0.0413,0.0458,0.0556,0.0626,0.0654,0.0685,0.0729,0.0736,0.0693,0.0658,0.0605,0.0541,0.047,0.039,0.0267,0.0284,0.0204,0.0142,0.0141,0.0091,0.01,0.009,0.0096,0.0146,0.0147,0.0148,0.0148,0,0.0439,0.053,0.061,0.0643,0.0707,0.0745,0.0773,0.0758,0.0777,0.0724,0.0731,0.0611,0.058,0.0446,0.031,0.0289,0.0174,0.0149,0.0054,0.0055,0.0042,0.0041,0.0046,0.0046,0.0046,0.0046,0.0046,0,0.0497,0.0559,0.0622,0.0671,0.0749,0.077,0.0832,0.0833,0.0828,0.0873,0.0771,0.0791,0.0583,0.0505,0.0351,0.0195,0.0216,0.0042,0.0036,0.0059,0.0061,0.0064,0.0066,0.0045,0.0046,0.0046,0.0046,0,0.0533,0.0571,0.0664,0.0738,0.0774,0.0825,0.0923,0.0948,0.0932,0.1005,0.1006,0.0933,0.0831,0.0634,0.0439,0.0278,0.012,0.006,0.011,0.0107,0.0014,0.0018,-0.0047,-0.0048,-0.0049,-0.005,-0.0051,0,0.0564,0.0617,0.0729,0.0786,0.0833,0.0917,0.0974,0.0999,0.1054,0.1121,0.1168,0.1096,0.107,0.0769,0.0463,0.0194,0.015,0.0025,-0.0039,-0.0003,-0.0002,0.0004,0.001,-0.0017,-0.0017,-0.0017,-0.0018,0,0.0628,0.0659,0.0736,0.0856,0.0939,0.1058,0.1156,0.1219,0.1271,0.1349,0.1442,0.1434,0.1149,0.0867,0.0464,0.0277,0.0058,0.0008,0.0038,-0.0006,0.0021,0.0024,0.0029,-0.0021,-0.0021,-0.002,-0.002,-0.002,0.0659,0.0731,0.0822,0.0932,0.1034,0.1177,0.1288,0.1401,0.1537,0.1637,0.1625,0.1592,0.1253,0.0725,0.0414,0.0059,0.0063,-0.008,-0.0077,-0.0074,-0.0078,-0.0057,-0.0111,-0.0111,-0.0111,-0.0112,-0.0112,0,0.071,0.0789,0.0898,0.1039,0.1163,0.1213,0.139,0.1498,0.1684,0.1741,0.1793,0.1468,0.1155,0.0784,0.0263,-0.0046,-0.007,-0.0144,-0.0104,-0.01,-0.0096,-0.01,-0.014,-0.014,-0.0141,-0.0142,0,0,0.0741,0.0849,0.0912,0.1108,0.122,0.1412,0.1521,0.168,0.1758,0.1808,0.1757,0.1637,0.1221,0.0833,0.0429,0.0153,0.0095,0.009,0.0141,0.0241,0.0248,-0.0035,-0.0035,0,0,0,0,0]}],[{"header":{"parameterUnit":"m.s-1","parameterCategory":2,"la1":30.2991,"la2":30.254,"lo1":-89.0895,"lo2":-89.0444,"dy":0.0017,"dx":0.0017,"nx":28,"ny":28,"refTime":"2023-09-25T09:00:00:Z","depth":"4","parameterNumber":2,"parameterNumberName":"U-component_of_CURRENTS"},"data":[0,0,0,0,0,0,0,0,0,0,0,0,0,0,0,0,0,0,0,0,0,0,0,0,0,0,0,0,0,0,0,0,0,0,0,0,0,0,0,0,0,0,0,0,0,0,0,0,0,0,0,0,0,0,0,0,0,0,0.126,0.1261,0,0.1296,0.1297,0.1297,0.1346,0.1347,0.1348,0.1349,0.1368,0.1367,0.1367,0,0,0,0,0,0,0,0,0,0,0,0,0,0.1192,0.1193,0.126,0.1261,0.1261,0.1296,0.1297,0.1297,0.1346,0.1347,0.1348,0.1349,0.1368,0.1367,0.1367,0,0,0,0,0,0,0,0,0,0,0,0,0,0.1222,0.1194,0.126,0.1292,0.1296,0.1296,0.1297,0.1297,0.1345,0.1347,0.1349,0.135,0.1368,0.1368,0.1367,0.133,0,0,0.1365,0.1364,0,0,0,0,0,0,0,0,0.122,0.1224,0.1287,0.129,0.1294,0.1321,0.128,0.1308,0.1345,0.1323,0.1349,0.1351,0.1351,0.1352,0.1351,0.1331,0.1331,0.1364,0.1364,0.1364,0.1363,0,0,0,0,0,0,0,0.1218,0.1222,0.1271,0.1287,0.1292,0.1291,0.1297,0.1285,0.1325,0.1325,0.133,0.1338,0.1353,0.1352,0.1352,0.1332,0.1364,0.1364,0.1363,0.1363,0.141,0.1411,0,0,0,0,0,0,0.122,0.1221,0.127,0.1273,0.1263,0.1291,0.1298,0.1308,0.1326,0.1331,0.1336,0.134,0.1352,0.1353,0.1353,0.1416,0.1364,0.1363,0.1363,0.1408,0.141,0.1412,0,0,0,0,0,0,0.1218,0.1224,0.1269,0.125,0.1256,0.1292,0.1302,0.1308,0.134,0.1335,0.134,0.1367,0.1354,0.1354,0.1382,0.1413,0.1363,0.1362,0.1406,0.1409,0.1411,0.1474,0,0,0,0,0,0,0.1216,0.1223,0.1238,0.125,0.1257,0.1291,0.1301,0.1308,0.1342,0.1348,0.1361,0.1363,0.1355,0.1384,0.1382,0.1411,0.1361,0.1404,0.1407,0.141,0.147,0.1479,0.1486,0,0,0,0,0,0.1213,0.1221,0.1238,0.1245,0.1274,0.1292,0.1296,0.1324,0.1342,0.1358,0.1379,0.1365,0.1403,0.1384,0.1381,0.1412,0.1403,0.1406,0.141,0.1467,0.1477,0.1486,0,0,0,0,0,0,0.1204,0.1228,0.1247,0.1264,0.129,0.1302,0.1319,0.1338,0.1365,0.1379,0.1377,0.138,0.1421,0.1406,0.1386,0.1437,0.1403,0.1407,0.1447,0.1457,0.1465,0.1453,0.1361,0,0,0,0,0,0.1207,0.1221,0.1247,0.1266,0.1279,0.1305,0.1319,0.1341,0.1362,0.1378,0.1393,0.141,0.1427,0.1436,0.1445,0.146,0.1482,0.1482,0.149,0.1496,0.1487,0.1558,0.1572,0.1425,0.1425,0.1425,0,0,0.1205,0.1226,0.1232,0.1265,0.1286,0.1303,0.1318,0.1349,0.1377,0.1372,0.1421,0.1439,0.144,0.1472,0.1488,0.1467,0.1558,0.1501,0.1507,0.1494,0.1564,0.1578,0.1591,0.1427,0.1427,0.1426,0,0,0.1208,0.1232,0.1246,0.1266,0.1307,0.1319,0.1336,0.1371,0.1406,0.1445,0.1461,0.1492,0.1517,0.1523,0.1527,0.1578,0.1603,0.16,0.1623,0.1693,0.1706,0.1717,0.1797,0.1814,0.1598,0.1598,0.1598,0,0.1211,0.1232,0.1254,0.1276,0.1294,0.133,0.135,0.1381,0.1428,0.1461,0.1474,0.1539,0.1533,0.1572,0.1594,0.1593,0.1654,0.1585,0.1704,0.1715,0.1726,0.1804,0.1823,0.1602,0.1601,0.1601,0.1601,0,0.1223,0.1244,0.1255,0.1292,0.1314,0.1337,0.1379,0.1419,0.1465,0.1502,0.1577,0.1588,0.1632,0.1637,0.1626,0.17,0.173,0.1713,0.1679,0.1745,0.1823,0.1842,0.1607,0.1606,0.1605,0.1604,0,0,0.1221,0.1254,0.1265,0.1277,0.1326,0.134,0.1393,0.1448,0.1494,0.1559,0.1634,0.1657,0.1698,0.1704,0.1715,0.1751,0.1875,0.177,0.1772,0.1847,0.2071,0.1896,0.19,0.1904,0.1907,0.1909,0.2108,0,0.1231,0.1255,0.1281,0.1307,0.1315,0.1362,0.1411,0.147,0.1527,0.161,0.1662,0.1741,0.1719,0.1768,0.1805,0.186,0.1923,0.1824,0.1995,0.2,0.1835,0.1913,0.1918,0.2122,0.2126,0.2129,0.2131,0,0.1236,0.1252,0.1272,0.1311,0.1326,0.1355,0.1428,0.1486,0.1599,0.1654,0.1742,0.1812,0.1901,0.1875,0.2013,0.197,0.203,0.2058,0.2067,0.1883,0.1857,0.2034,0.2164,0.2162,0.2159,0.2157,0.2155,0,0.1201,0.1244,0.1255,0.1267,0.1321,0.1358,0.1415,0.1508,0.1583,0.1715,0.1791,0.1903,0.1993,0.2081,0.2145,0.2123,0.2288,0.2265,0.2168,0.2159,0.2229,0.2214,0.2371,0.2371,0.2371,0.237,0.2369,0,0.1173,0.1188,0.1243,0.1245,0.1288,0.1353,0.1431,0.1492,0.1632,0.1717,0.1841,0.1909,0.2055,0.2164,0.221,0.2239,0.236,0.2182,0.2192,0.2256,0.2242,0.2244,0.2227,0.2377,0.2376,0.2374,0.2373,0,0.1109,0.1145,0.1158,0.1228,0.1262,0.13,0.1446,0.1504,0.1645,0.1764,0.1836,0.1985,0.2102,0.222,0.2353,0.2304,0.2354,0.2337,0.2422,0.2434,0.2177,0.2161,0.2271,0.2267,0.2263,0.2259,0.2257,0,0.1054,0.1061,0.1135,0.1146,0.1177,0.1264,0.133,0.1492,0.1555,0.1766,0.181,0.1996,0.2073,0.2149,0.2244,0.2353,0.2313,0.2349,0.2221,0.2164,0.2166,0.2155,0.2145,0.225,0.2249,0.2248,0.2247,0,0.0954,0.1004,0.1022,0.106,0.111,0.1176,0.1283,0.1341,0.1528,0.1676,0.1764,0.1855,0.1966,0.2048,0.2148,0.2201,0.2323,0.2307,0.2315,0.2195,0.214,0.2143,0.2138,0.2234,0.2236,0.2237,0.2238,0,0.0882,0.0887,0.0927,0.0952,0.1004,0.1048,0.1139,0.1235,0.135,0.1594,0.1602,0.1781,0.1924,0.197,0.2047,0.2097,0.2069,0.2011,0.2033,0.205,0.1875,0.1766,0.1764,0,0,0,0,0,0.0795,0.0806,0.0815,0.0836,0.0881,0.0928,0.1072,0.1178,0.1375,0.1401,0.1513,0.1608,0.1722,0.1797,0.1811,0.1944,0.2071,0.1948,0.2012,0.2158,0.2174,0.1983,0,0,0,0,0,0,0.075,0.0752,0.0776,0.0721,0.0725,0.0789,0.0886,0.1034,0.1065,0.1265,0.1337,0.1488,0.1622,0.1694,0.1765,0.1797,0.1803,0.2066,0.2062,0.2149,0.2164,0.2176,0.1986,0,0,0,0,0]},{"header":{"parameterUnit":"m.s-1","parameterCategory":2,"la1":30.2991,"la2":30.254,"lo1":-89.0895,"lo2":-89.0444,"dy":0.0017,"dx":0.0017,"nx":28,"ny":28,"refTime":"2023-09-25T09:00:00:Z","depth":"4","parameterNumber":3,"parameterNumberName":"V-component_of_CURRENTS"},"data":[0,0,0,0,0,0,0,0,0,0,0,0,0,0,0,0,0,0,0,0,0,0,0,0,0,0,0,0,0,0,0,0,0,0,0,0,0,0,0,0,0,0,0,0,0,0,0,0,0,0,0,0,0,0,0,0,0,0,0.0287,0.0286,0,0.0289,0.0289,0.0289,0.0271,0.0271,0.027,0.0269,0.0283,0.0284,0.0285,0,0,0,0,0,0,0,0,0,0,0,0,0,0.0258,0.0259,0.0287,0.0286,0.0286,0.0289,0.0289,0.0289,0.0272,0.0271,0.027,0.0269,0.0282,0.0283,0.0285,0,0,0,0,0,0,0,0,0,0,0,0,0,0.0268,0.0259,0.0287,0.0276,0.0275,0.0289,0.0289,0.0289,0.0272,0.0271,0.027,0.0269,0.0282,0.0283,0.0285,0.0315,0,0,0.0289,0.029,0,0,0,0,0,0,0,0,0.0268,0.027,0.0278,0.0277,0.0276,0.0277,0.0284,0.0298,0.0272,0.0275,0.0269,0.0268,0.0281,0.0283,0.0288,0.0315,0.0316,0.0289,0.029,0.0291,0.0291,0,0,0,0,0,0,0,0.0267,0.027,0.029,0.0278,0.0276,0.0268,0.0269,0.0286,0.0286,0.0275,0.0273,0.027,0.0281,0.0287,0.0288,0.0316,0.0289,0.0291,0.0292,0.0292,0.0353,0.0354,0,0,0,0,0,0,0.0265,0.0269,0.0289,0.0289,0.0267,0.0269,0.027,0.0279,0.0285,0.0285,0.0271,0.0269,0.0285,0.0287,0.0289,0.0323,0.0291,0.0292,0.0293,0.0352,0.0353,0.0354,0,0,0,0,0,0,0.0264,0.0267,0.0289,0.0277,0.0279,0.0271,0.0281,0.028,0.0284,0.0282,0.0282,0.0276,0.0284,0.0287,0.0308,0.0323,0.0293,0.0294,0.0352,0.0353,0.0354,0.0393,0,0,0,0,0,0,0.0264,0.0267,0.0277,0.0277,0.0279,0.0306,0.0282,0.0281,0.0283,0.0281,0.0286,0.0286,0.0283,0.0306,0.0309,0.0325,0.0296,0.0351,0.0352,0.0353,0.0391,0.0395,0.0399,0,0,0,0,0,0.0263,0.0283,0.0278,0.028,0.0293,0.0307,0.0308,0.0299,0.0284,0.0297,0.0296,0.0286,0.0316,0.0308,0.0312,0.0328,0.035,0.0352,0.0353,0.0389,0.0394,0.0399,0,0,0,0,0,0,0.0275,0.0282,0.0278,0.0298,0.0304,0.0303,0.0315,0.0304,0.0314,0.0314,0.0303,0.0304,0.0326,0.0324,0.0315,0.0348,0.0329,0.0332,0.0355,0.036,0.0364,0.0362,0.0297,0,0,0,0,0,0.0283,0.03,0.0302,0.0319,0.0326,0.0321,0.0325,0.0322,0.0326,0.0329,0.0328,0.033,0.0338,0.0346,0.0354,0.0381,0.034,0.0391,0.0395,0.0399,0.04,0.0346,0.0345,0.0359,0.0359,0.0359,0,0,0.029,0.0297,0.0305,0.0322,0.0328,0.0347,0.0322,0.0339,0.0352,0.0331,0.0353,0.0348,0.0347,0.0372,0.0381,0.0372,0.0372,0.0401,0.0404,0.0403,0.0347,0.0346,0.0344,0.0361,0.036,0.036,0,0,0.0313,0.0324,0.0345,0.0357,0.0371,0.0372,0.0377,0.0383,0.0385,0.0408,0.0389,0.0389,0.0413,0.0405,0.0406,0.0439,0.0394,0.0446,0.047,0.0419,0.0416,0.0414,0.0349,0.034,0.045,0.045,0.045,0,0.0319,0.0348,0.0353,0.0378,0.0392,0.0384,0.0411,0.0417,0.0426,0.0429,0.0423,0.0427,0.0426,0.0434,0.0446,0.0448,0.0406,0.0452,0.0422,0.0419,0.0416,0.035,0.034,0.0452,0.0452,0.0452,0.0452,0,0.0356,0.0382,0.04,0.0428,0.0445,0.0471,0.0479,0.0495,0.0494,0.0486,0.0495,0.0486,0.0483,0.0484,0.0481,0.0466,0.0438,0.043,0.0406,0.0416,0.0346,0.0335,0.0455,0.0455,0.0454,0.0453,0,0,0.0361,0.0414,0.0422,0.045,0.0477,0.05,0.0527,0.0545,0.0556,0.0553,0.0555,0.0559,0.0535,0.0534,0.0518,0.048,0.0421,0.0454,0.045,0.0383,0.0292,0.0279,0.0265,0.0406,0.0405,0.0404,0.0248,0,0.0388,0.0451,0.0465,0.0524,0.0559,0.0569,0.06,0.0613,0.0608,0.0608,0.058,0.0582,0.056,0.0562,0.0517,0.0452,0.0396,0.0464,0.0298,0.0293,0.0275,0.0254,0.04,0.0239,0.0237,0.0235,0.0234,0,0.0416,0.0459,0.0525,0.0588,0.0605,0.0639,0.0682,0.0707,0.0697,0.0688,0.0661,0.063,0.0586,0.0565,0.0431,0.0475,0.0387,0.0325,0.0317,0.0285,0.026,0.023,0.0213,0.0214,0.0216,0.0217,0.0219,0,0.0431,0.0499,0.0558,0.0581,0.0647,0.0685,0.0723,0.0735,0.0763,0.0736,0.0734,0.0659,0.0633,0.0518,0.0395,0.0408,0.0229,0.0226,0.0122,0.0119,0.0159,0.0163,0.0113,0.0113,0.0114,0.0114,0.0115,0,0.0456,0.0505,0.0579,0.0618,0.07,0.073,0.0801,0.0815,0.0829,0.0847,0.0783,0.0759,0.0622,0.051,0.0387,0.0217,0.0212,0.0114,0.0078,0.0179,0.0187,0.015,0.0156,0.0108,0.011,0.0111,0.0112,0,0.0467,0.0512,0.0588,0.0676,0.0715,0.0779,0.088,0.0922,0.092,0.0935,0.0933,0.0828,0.0673,0.0518,0.0314,0.0213,0.0051,-0.0011,0.0094,0.0068,-0.0028,-0.0018,-0.015,-0.0152,-0.0154,-0.0155,-0.0156,0,0.0484,0.0527,0.0638,0.07,0.075,0.0851,0.0927,0.0972,0.1001,0.0968,0.0968,0.0835,0.0742,0.0438,0.0268,0.001,-0.0015,-0.0106,-0.0053,-0.0034,-0.0056,-0.0043,-0.0031,-0.0158,-0.0159,-0.0159,-0.0159,0,0.0516,0.0553,0.0615,0.0741,0.0838,0.0941,0.1037,0.1062,0.1088,0.1084,0.0986,0.0834,0.0647,0.0422,0.0223,0.0044,-0.0046,-0.0122,-0.012,-0.0071,-0.0045,-0.0062,-0.0049,-0.0165,-0.0164,-0.0163,-0.0163,0,0.0539,0.0585,0.0669,0.0778,0.0893,0.0991,0.1047,0.1079,0.111,0.1063,0.1017,0.0825,0.0712,0.0435,0.0248,0.0074,0.0036,-0.0009,-0.0013,-0.0009,0.009,0.0148,0.0046,0,0,0,0,0,0.0563,0.0616,0.071,0.0824,0.0928,0.0999,0.1099,0.1135,0.1147,0.1088,0.1056,0.088,0.0592,0.046,0.0283,0.022,0.0007,0.0006,-0.0046,-0.0193,-0.0187,-0.0094,0,0,0,0,0,0,0.0576,0.066,0.0702,0.083,0.0909,0.1033,0.1098,0.1115,0.1076,0.1052,0.0901,0.0829,0.0551,0.0688,0.0273,0.0219,0.0161,-0.0126,-0.013,-0.0196,-0.0191,-0.0186,-0.0088,0,0,0,0,0]}]]